Snowfall_Accumulation
0.2 1.7 5.5 1.9 0.8 1.6 2.2 2.5 1.8 0.9 0.2 0.5 1.1 1.1 0.0 0.0 0.0 0.0 0.0 0.0 0.0 0.0 0.0 0.0 0.0 0.0 0.0 0.0 0.0 0.0 0.0 0.0 0.0 0.0 0.0 0.0 0.0 0.0 0.0 0.0 0.0 0.0 0.0 0.0
2.5 4.1 0.9 0.3 0.5 1.7 2.6 3.4 2.2 1.0 0.1 0.9 2.0 1.1 0.4 0.0 0.0 0.0 0.0 0.0 0.0 0.0 0.0 0.0 0.0 0.0 0.0 0.0 0.0 0.0 0.0 0.0 0.0 0.0 0.0 0.0 0.0 0.0 0.0 0.0 0.0 0.0 0.0 0.0
5.3 2.2 0.2 0.8 1.5 2.7 2.8 3.1 1.9 2.1 1.2 0.3 1.5 2.8 1.0 0.2 0.0 0.0 0.0 0.0 0.0 0.0 0.0 0.0 0.0 0.0 0.0 0.0 0.0 0.0 0.0 0.0 0.0 0.0 0.0 0.0 0.0 0.0 0.0 0.0 0.0 0.0 0.0 0.0
1.9 0.5 0.6 1.6 2.1 2.3 3.8 0.7 0.6 1.8 2.8 4.0 3.1 6.5 1.9 0.7 0.6 0.0 0.1 0.3 0.0 0.0 0.0 0.0 0.0 0.0 0.0 0.0 0.0 0.0 0.0 0.0 0.0 0.0 0.0 0.0 0.0 0.0 0.0 0.0 0.0 0.0 0.0 0.0
3.4 0.6 0.7 2.9 1.7 1.2 1.4 0.1 0.5 1.3 3.9 5.2 2.5 5.3 3.4 0.7 1.4 0.9 0.3 0.6 0.5 0.0 0.0 0.0 0.0 0.0 0.0 0.0 0.0 0.0 0.0 0.0 0.0 0.0 0.0 0.0 0.0 0.0 0.0 0.0 0.0 0.0 0.0 0.0
1.6 0.4 0.5 0.7 0.1 0.3 0.4 0.5 0.9 2.3 6.4 11.3 4.1 4.9 4.2 3.2 2.6 1.2 0.3 0.5 0.4 0.1 0.0 0.0 0.0 0.0 0.0 0.0 0.0 0.0 0.0 0.0 0.0 0.0 0.0 0.0 0.0 0.0 0.0 0.0 0.0 0.0 0.0 0.0
7.5 2.9 0.6 0.2 2.2 1.7 2.0 11.7 19.5 19.3 16.9 9.4 1.8 3.2 4.1 1.9 0.4 0.3 0.3 0.5 0.3 0.2 0.2 0.1 0.0 0.4 0.1 0.1 0.2 0.2 0.2 0.3 0.1 0.0 0.0 0.0 0.0 0.0 0.0 0.0 0.0 0.0 0.0 0.0
10.7 11.4 1.6 0.4 1.2 3.4 3.2 7.7 14.5 13.1 8.7 4.3 2.1 3.6 3.7 0.3 0.2 0.0 0.1 0.4 0.3 0.5 0.5 0.4 0.3 0.5 0.1 0.1 0.0 0.1 0.1 0.3 0.3 0.2 0.1 0.0 0.0 0.0 0.0 0.0 0.0 0.0 0.0 0.0
8.3 8.4 0.8 0.2 0.3 1.3 6.0 7.5 4.3 10.0 7.5 5.2 3.5 2.6 2.0 0.2 0.3 0.4 0.3 0.3 0.5 0.4 0.5 0.6 0.8 0.8 0.4 0.4 0.0 0.0 0.1 0.2 0.2 0.2 0.0 0.0 0.0 0.0 0.0 0.0 0.0 0.0 0.0 0.0
4.8 8.5 3.0 0.3 0.6 0.5 1.3 1.9 6.9 12.6 10.7 7.5 3.8 3.0 4.0 2.8 1.7 0.9 0.4 0.4 0.3 0.3 0.4 0.5 0.7 0.9 0.8 0.2 0.5 0.1 0.1 0.1 0.0 0.2 0.2 0.2 0.2 0.0 0.0 0.0 0.0 0.0 0.0 0.0
3.2 7.8 7.5 2.0 4.3 4.5 2.9 4.5 7.7 9.7 8.4 8.7 5.8 4.0 2.8 2.4 1.5 1.2 0.4 0.4 0.6 0.7 0.5 0.6 0.6 0.5 0.4 0.4 0.1 0.1 0.0 0.0 0.1 0.0 0.1 0.2 0.2 0.1 0.0 0.0 0.0 0.0 0.0 0.0
2.4 5.3 9.4 3.9 0.5 0.4 1.0 2.6 5.5 10.7 8.3 6.6 6.2 4.1 0.8 0.5 0.3 0.5 0.4 0.4 0.4 0.5 0.4 0.4 0.3 0.4 0.4 0.2 0.1 0.1 0.1 0.2 0.1 0.0 0.0 0.0 0.2 0.0 0.1 0.0 0.0 0.0 0.0 0.0
3.1 6.3 10.0 4.6 2.0 1.0 2.3 1.7 2.6 5.5 9.5 7.7 7.2 4.5 0.6 0.5 0.3 0.3 0.3 0.4 0.2 0.2 0.3 0.3 0.3 0.3 0.3 0.2 0.1 0.1 0.1 0.2 0.1 0.0 0.0 0.0 0.1 0.2 0.2 0.1 0.0 0.0 0.0 0.0
2.1 5.7 7.0 6.6 4.6 4.2 4.4 3.3 2.9 7.7 12.0 6.7 4.4 3.9 2.0 1.0 0.6 0.5 0.4 0.3 0.3 0.2 0.2 0.2 0.2 0.2 0.2 0.2 0.2 0.1 0.1 0.1 0.2 0.1 0.0 0.0 0.0 0.0 0.0 0.0 0.0 0.0 0.0 0.0
2.4 5.3 3.8 2.3 1.3 2.0 2.6 2.7 3.0 5.7 5.6 6.3 3.5 2.9 1.7 1.0 0.6 0.4 0.3 0.3 0.2 0.2 0.1 0.1 0.2 0.2 0.2 0.2 0.2 0.1 0.1 0.1 0.1 0.1 0.1 0.1 0.1 0.1 0.0 0.0 0.0 0.0 0.0 0.0
1.6 3.5 2.8 3.1 1.0 1.3 2.7 2.0 2.1 2.4 2.8 3.6 3.0 2.6 1.0 0.6 0.4 0.4 0.3 0.2 0.2 0.3 0.2 0.2 0.2 0.2 0.1 0.1 0.2 0.2 0.1 0.1 0.1 0.2 0.2 0.1 0.1 0.1 0.0 0.0 0.0 0.0 0.0 0.0
1.8 2.6 5.8 4.1 1.5 3.1 4.5 2.3 2.0 2.4 2.3 2.6 3.9 2.5 1.0 0.9 0.9 0.9 0.3 0.2 0.2 0.2 0.2 0.1 0.1 0.1 0.1 0.1 0.1 0.1 0.1 0.1 0.1 0.1 0.2 0.1 0.1 0.2 0.1 0.1 0.1 0.2 0.2 0.2
1.7 2.7 6.0 5.0 3.1 4.5 2.3 0.9 1.1 1.7 2.0 1.4 1.5 1.2 0.7 0.8 0.7 0.3 0.2 0.4 0.3 0.3 0.3 0.2 0.2 0.1 0.1 0.1 0.1 0.1 0.0 0.1 0.1 0.2 0.2 0.2 0.3 0.2 0.4 0.5 0.5 0.6 0.6 0.5
1.1 2.6 7.3 6.3 4.2 2.6 1.2 0.8 1.0 1.8 2.6 1.5 1.1 0.7 0.4 0.3 0.3 0.3 0.2 0.2 0.3 0.3 0.2 0.2 0.3 0.2 0.1 0.1 0.1 0.1 0.1 0.1 0.2 0.3 0.3 0.5 0.6 0.8 0.6 0.7 0.6 0.6 0.7 0.7
0.9 1.9 6.4 6.8 5.6 3.5 1.8 0.6 0.4 0.7 2.8 1.0 0.5 0.7 0.5 0.4 1.1 1.2 0.2 0.2 0.2 0.2 0.2 0.2 0.2 0.2 0.1 0.1 0.1 0.1 0.2 0.3 0.3 0.3 0.5 0.5 0.4 1.0 0.9 0.8 0.7 0.7 0.7 0.9
2.6 3.9 6.1 5.5 5.2 2.6 1.2 0.4 0.3 2.2 5.4 0.8 0.7 0.7 0.5 0.9 1.5 1.0 0.3 0.2 0.1 0.1 0.2 0.2 0.2 0.3 0.2 0.3 0.3 0.5 0.5 0.6 0.8 0.3 0.2 0.3 0.5 0.9 0.8 0.9 0.6 0.8 0.7 0.8
2.4 3.1 3.2 3.3 4.9 3.5 1.0 0.7 1.8 2.4 1.1 0.7 0.7 0.7 0.7 0.7 0.6 0.5 0.4 0.3 0.2 0.3 0.2 0.4 0.4 0.6 0.5 0.6 0.6 0.8 0.8 0.3 0.2 0.3 0.4 0.6 0.9 0.9 0.6 0.6 0.7 1.1 1.1 1.0
2.2 2.9 3.2 3.3 3.5 2.3 1.2 1.3 1.1 0.7 0.8 0.7 0.7 0.7 0.7 0.7 0.7 0.6 0.5 0.4 0.4 0.5 0.4 0.3 0.4 0.4 0.3 0.4 0.3 0.8 0.8 0.6 0.4 0.6 0.6 0.6 0.6 0.6 0.7 0.5 0.8 0.9 0.8 0.8
1.7 1.2 1.8 2.4 1.8 1.5 1.1 1.0 0.8 0.7 0.8 0.7 0.6 0.5 0.5 0.5 0.5 0.4 0.4 0.4 0.3 0.3 0.3 0.3 0.4 0.5 0.5 0.5 0.6 0.7 0.6 0.4 0.6 0.8 0.9 0.8 0.6 0.6 0.6 0.6 0.5 0.8 0.8 0.9
1.2 1.2 1.6 2.2 1.5 1.2 1.2 1.1 1.0 0.7 0.5 0.4 0.4 0.3 0.3 0.3 0.3 0.2 0.3 0.3 0.2 0.2 0.2 0.3 0.5 0.5 0.6 0.5 0.8 0.7 0.6 0.6 0.7 0.7 0.7 0.7 0.6 0.5 0.5 0.7 0.4 0.7 0.6 0.8
1.4 1.6 2.2 2.5 1.5 1.7 1.5 0.8 0.5 0.4 0.4 0.4 0.3 0.3 0.2 0.2 0.2 0.2 0.2 0.2 0.2 0.3 0.2 0.3 0.4 0.4 0.6 0.6 0.7 0.8 0.5 0.5 1.0 0.8 0.6 0.6 0.5 0.5 0.6 0.7 0.7 0.3 0.5 0.5